COSMOS 1275 DEB, 42229

Orbit data source: Space-Track

COSMOS 1275 DEB, 42229 is space debris in LEO originally from a launch on Thu, 04 Jun 1981 UTC launched from the Plesetsk Missile And Space Complex (PKMTR). Debris objects in space refer to the collection of defunct objects orbiting the Earth. Examples of debris include non-operational satellites, rocket bodies, and fragments generated from explosions, collisions, or faulty payload assembly.

Loading next visibility...
Identifier
42229, 1981-053UV
Orbit
LEO
Country
Flag of CISCIS
Related business
Manufacturer
Unknown
Mission
Spacecraft
Bus & Motor
Unknown
Mass
Unknown
Launch date (UTC)
1981-06-04 (45 years ago)
Launch vehicle
Unknown
Launch site
Plesetsk Missile And Space Complex (PKMTR)
Object type
Payload
Rocket body
Debris
Shape & HBR
Unknown shape, 0.1 m
Radar Cross Section
Small (<0.1 m²)

Expand to show TLE details & history
Last TLE update: 2 weeks ago

TLE from 2 weeks ago
0 COSMOS 1275 DEB
1 42229U 81053UV  26023.93985083  .00001856  00000-0  25722-2 0  9994
2 42229  83.0165 111.7726 0218163 279.2618  78.3910 13.48381887597544
Epoch: 2026-01-23T22:33Z
TLE epoch observation values (Epoch: 2026-01-23T22:33:23.111Z)
Latitude
-0.00007°
Longitude
10.15483°
Altitude
1,051.77 km
Speed
7.34 km/s
True Right ascension
07h 27m 05s
True Declination
0° 00' 00"
Sunlit
Object was in full shadow at epoch
Visualization orbit readout
Latitude
Unknown
Longitude
Unknown
Altitude
Unknown
Speed
Unknown
Apparent Right ascension
Unknown
Apparent Declination
Unknown
Sunlit
N/A
Visualization observer readout
Local Sidereal Time
18:02:48
Azimuth
Unknown
Elevation
Unknown
Doppler factor
Unknown
Orbital elements
Apogee altitude
1,238.007 km
Perigee altitude
912.79 km
Semi-major axis
7,453.536 km
Eccentricity
0.02182
Inclination
83.0165°
RAAN
111.7726°
Arg. of periapsis
279.2618°
True anomaly
80.85258°
Mean anomaly
78.391°
Eccentric anomaly
79.62053°
Mean motion
3.37287 °/min
Orbital period
106.73 mins
BSTAR
0.0025722
Loading maneuver chart data...
Computing Atmospheric mass density...
Loading historical data...
Loading historical data...
Loading historical data...
Loading historical data...
Loading historical data...
Loading historical data...
Loading historical data...

Documentation

Showing up to 5 results
|